Temperature
11 11 10 10 9 9 8 8 7 7 7 6 6 6 6 5 5 5 5 4 4 4 3 3 3 3 3 3 3 3 3 3 3 3 3 2 2 1 1 1 1 1 1
10 10 10 9 8 8 7 7 7 6 6 6 5 5 5 5 4 4 4 3 3 3 3 2 2 2 2 2 2 2 2 2 1 1 1 1 1 1 1 1 1 1 1
9 9 8 8 7 7 7 6 6 5 5 5 5 5 4 4 3 3 3 2 2 2 2 2 1 1 1 1 1 1 1 1 1 1 1 1 1 1 1 1 1 1 1
8 8 7 7 7 6 6 5 5 5 5 4 4 4 3 3 3 2 2 2 1 1 1 1 1 1 1 1 1 1 1 1 1 0 0 1 1 1 1 1 1 1 1
7 7 6 6 6 5 5 5 5 4 4 4 3 3 3 3 2 2 1 1 1 1 1 1 1 0 0 0 -0 0 0 0 0 0 0 0 0 1 1 1 0 0 1
6 6 5 5 5 5 4 4 4 4 3 3 3 2 2 2 2 1 1 1 0 0 1 1 0 0 0 -0 -0 -0 -0 -0 -0 -0 0 0 0 0 0 0 0 0 0
5 5 5 4 4 4 4 3 3 3 3 2 2 2 1 1 1 1 1 1 0 0 0 0 0 0 -0 -0 -0 -0 -0 -0 -0 -0 0 0 0 0 0 0 0 0 0
5 4 4 4 4 3 3 3 2 2 2 2 1 1 1 0 0 0 0 -0 -0 -0 -0 -0 -0 -0 -0 -1 -1 -0 0 0 0 0 0 0 0 0 0 -0 -0 -0 -0
4 4 4 3 3 3 3 2 2 2 1 1 1 0 0 -0 -0 -0 -0 -1 -1 -1 -0 -0 -1 -0 -1 -1 -0 -0 0 1 1 1 0 0 0 0 -0 -0 -0 -0 -0
4 4 3 3 3 3 2 2 2 1 1 1 0 0 -0 -0 -1 -1 -1 -1 -1 -1 -1 -1 -0 -1 -1 -0 -0 0 0 1 1 1 1 1 1 0 -0 -0 -0 -0 -0
4 3 3 3 3 2 2 2 1 1 1 1 0 -0 -0 -1 -1 -1 -1 -2 -1 -1 -1 -1 -0 -0 -0 0 0 0 1 1 1 1 1 1 0 0 0 -0 -0 -0 -0
4 3 3 3 3 2 2 1 1 1 1 1 0 0 -0 -1 -1 -1 -2 -2 -2 -1 -1 -1 -0 -0 0 0 1 1 1 1 1 1 1 1 0 0 -0 0 0 0 0
3 3 3 3 2 2 2 2 2 1 1 1 1 0 -0 -1 -1 -1 -2 -2 -2 -1 -1 -1 -0 0 0 1 1 1 1 1 1 1 1 0 0 -0 -0 0 0 0 0
3 3 3 3 2 2 2 2 2 2 1 1 1 0 -0 -1 -1 -2 -2 -2 -1 -1 -1 -0 -0 0 0 1 1 1 1 1 1 1 1 0 0 -0 -0 -0 -0 -0 0
3 3 3 3 3 2 2 2 2 1 1 0 0 -0 -1 -1 -1 -2 -2 -2 -2 -1 -1 -0 0 0 1 1 1 1 1 1 1 1 1 1 0 -0 -0 -0 -0 -0 -0
4 3 4 4 3 3 3 2 2 1 1 0 -0 -1 -1 -1 -1 -2 -2 -1 -1 -1 -1 -0 0 0 1 1 1 1 1 1 1 1 1 1 0 -0 -0 -0 -0 -0 -0
4 4 4 4 3 3 3 3 2 1 1 0 -0 -1 -1 -1 -1 -1 -1 -1 -1 -1 -0 -0 -0 0 1 1 1 1 1 1 1 1 1 1 0 0 -0 -0 -0 -0 -0
4 4 4 4 3 3 3 3 3 2 1 0 -0 -1 -1 -1 -1 -1 -1 -1 -1 -0 -0 -0 0 1 1 1 2 2 2 2 2 2 1 1 0 0 -0 -0 -0 -0 -0
4 4 3 3 3 3 3 3 2 2 1 0 -0 -1 -1 -1 -1 -1 -1 -1 -1 -0 -0 0 1 1 1 2 2 2 2 2 2 2 2 1 1 0 0 0 -0 -0 -0
4 3 3 3 4 3 3 3 2 1 1 0 -0 -1 -1 -1 -1 -1 -1 -1 -0 -0 0 1 1 1 2 2 2 2 2 2 2 3 2 2 2 1 1 1 0 0 -0
4 4 3 4 3 3 3 2 2 1 0 -0 -1 -1 -1 -1 -1 -1 -0 -0 -0 0 1 1 1 2 2 2 3 3 3 3 3 3 3 3 2 2 2 1 1 1 1
4 4 4 4 3 2 2 2 1 1 0 -0 -0 -1 -1 -1 -1 -0 -0 0 0 1 1 2 2 2 2 3 3 3 3 3 3 3 3 3 3 3 3 3 2 2 2
4 4 3 3 2 2 2 1 1 1 0 -0 -0 -1 -1 -1 -0 -0 0 0 1 1 1 2 2 2 3 3 3 3 3 3 3 3 4 4 4 4 3 3 3 3 3
4 3 3 3 2 2 2 1 1 1 0 0 -0 -0 -0 -0 -0 0 0 1 1 1 2 2 2 3 3 3 3 3 4 4 4 4 4 4 4 4 4 4 4 4 4
3 3 3 2 2 2 1 1 1 1 0 -0 -0 -0 -0 -0 0 0 0 1 1 1 2 2 2 3 3 3 4 4 4 4 4 4 4 4 4 4 5 4 5 5 5
3 2 2 2 2 2 1 1 1 0 0 -0 -0 -0 -0 0 0 0 1 1 1 1 2 2 2 3 3 3 4 4 4 4 4 4 4 5 5 4 5 5 5 5 5
Wind_Speed
14 15 15 15 15 14 13 12 11 10 9 8 7 7 5 4 3 2 2 2 3 4 5 6 7 8 9 9 10 10 11 11 14 15 13 14 16 17 18 21 22 21 20
15 15 15 15 14 14 13 12 11 10 8 7 6 6 4 3 2 2 2 3 4 5 6 8 9 8 10 11 10 11 11 11 13 17 15 15 16 17 17 17 18 18 19
15 16 15 15 15 14 13 11 10 9 8 6 5 4 3 2 1 2 3 4 5 6 8 9 10 10 11 10 11 11 11 11 12 14 16 14 15 15 16 16 16 14 18
14 15 15 14 14 13 12 10 9 8 6 5 4 3 2 1 2 3 4 5 6 8 9 9 10 10 11 12 11 12 12 13 13 13 14 14 14 16 14 13 13 13 14
14 14 14 13 12 11 10 9 7 6 5 4 3 2 1 2 5 7 7 7 8 9 10 9 10 9 11 10 11 13 14 13 13 13 13 13 13 13 12 11 13 13 14
13 13 12 11 10 9 8 7 6 4 3 3 2 2 3 5 8 8 10 10 9 10 10 10 10 10 8 11 13 15 17 17 15 13 12 13 15 14 12 11 12 12 10
12 11 10 9 9 7 6 5 4 3 3 3 3 3 4 7 7 7 9 11 11 9 10 10 10 9 11 10 13 16 17 17 17 14 14 14 15 14 13 13 12 13 13
11 9 8 7 7 6 5 5 4 3 3 3 3 3 3 5 5 7 12 11 9 9 10 11 11 11 9 12 15 16 16 15 14 13 12 13 14 14 13 13 13 12 13
9 8 7 6 6 5 5 4 3 3 3 3 3 3 3 3 6 7 12 10 8 10 11 11 11 11 9 12 15 15 16 14 13 14 17 18 20 19 14 10 10 9 10
8 7 7 6 5 5 5 4 3 3 3 3 3 3 4 3 4 4 11 9 9 9 10 10 8 7 12 14 14 13 14 14 15 15 13 12 11 10 10 9 8 8 7
8 7 7 6 5 5 4 3 3 2 3 3 3 3 2 3 1 1 7 9 10 10 9 9 8 9 14 16 14 11 12 15 14 12 11 10 9 8 8 7 7 6 7
7 7 6 5 4 4 3 3 2 3 2 2 3 4 3 3 3 4 7 9 10 11 10 9 10 14 17 18 13 11 15 15 9 9 9 9 9 9 8 8 8 7 6
6 6 5 4 4 3 1 1 1 2 4 4 5 5 6 6 4 3 8 11 11 10 10 11 14 16 16 12 9 13 13 9 9 9 9 9 8 8 8 8 8 7 6
5 4 4 3 3 2 1 2 4 5 5 5 6 6 7 7 7 9 9 9 9 9 10 11 11 11 10 10 10 9 8 9 9 9 8 8 7 7 7 7 7 8 7
4 3 2 2 1 0 1 2 4 5 5 6 7 7 8 8 9 11 10 9 10 10 12 9 8 9 10 10 10 10 10 9 9 9 8 8 7 7 7 7 7 7 6
2 2 1 0 1 2 3 0 4 2 4 1 2 6 6 7 10 11 11 12 13 13 11 7 8 9 9 10 10 11 10 10 10 9 8 7 7 7 8 7 7 7 7
1 1 2 2 3 3 4 5 1 3 6 6 3 1 6 9 10 11 12 13 12 10 6 7 7 8 9 9 9 10 10 10 10 9 8 8 7 7 7 8 8 8 8
2 1 3 3 3 4 4 5 5 4 2 1 3 1 6 9 9 10 12 11 6 6 6 7 7 8 9 9 9 10 10 10 10 9 9 9 8 8 7 8 8 9 9
4 3 3 4 4 3 4 4 4 5 5 5 5 4 6 8 7 7 8 6 7 7 7 7 7 8 9 9 9 9 10 10 10 9 9 9 8 8 8 8 8 9 9
2 2 3 4 3 3 3 4 5 5 6 6 6 7 8 7 6 7 7 7 6 7 7 8 8 9 9 10 10 10 10 10 11 10 10 9 9 9 9 10 9 8 8
3 2 4 2 3 4 4 5 5 5 6 5 5 5 6 6 6 7 7 7 7 7 8 8 8 9 9 10 10 11 12 10 10 10 10 10 10 10 9 9 9 8 8
4 3 3 4 4 5 4 4 5 5 5 5 4 4 4 5 6 7 7 7 7 6 7 7 8 8 9 10 10 10 10 10 10 10 10 10 10 11 11 10 10 10 10
3 3 4 4 4 4 3 4 4 5 5 5 5 6 6 7 7 7 8 7 7 7 8 8 8 9 12 12 11 9 9 9 8 9 9 10 10 10 10 11 13 13 13
4 3 3 4 4 3 4 4 4 5 5 5 6 6 7 7 7 8 8 7 8 9 10 9 10 12 15 14 12 11 11 11 10 8 9 9 10 9 9 10 10 11 10
5 4 4 4 4 4 4 4 5 5 5 6 6 7 7 8 8 8 8 8 9 9 11 12 12 13 15 16 16 14 15 14 12 11 7 8 9 10 9 10 10 11 11
5 5 4 4 4 4 4 5 5 5 6 6 6 7 7 8 8 8 8 9 9 9 11 12 14 16 17 16 18 18 17 16 15 15 9 9 10 11 10 9 11 11 12
Wind_Direction
94 98 101 104 105 105 104 105 106 106 109 110 112 115 116 112 96 65 29 359 330 329 322 319 314 314 307 307 299 294 292 294 294 297 299 300 298 294 294 292 291 291 289
99 100 102 104 104 104 104 105 107 106 107 107 108 104 99 89 68 28 358 343 331 327 324 319 314 312 308 299 301 300 297 296 294 297 298 299 297 297 293 293 294 293 292
104 104 104 105 104 104 104 104 102 101 100 98 100 101 93 81 53 0 340 330 326 322 319 316 313 310 306 307 305 299 298 297 295 295 298 300 298 299 300 297 297 297 294
103 103 102 102 102 102 101 99 97 96 95 93 89 81 66 21 352 344 332 326 321 318 314 309 306 307 308 310 305 302 302 302 299 296 296 298 299 300 300 301 301 297 295
103 102 101 101 100 98 95 91 88 88 91 86 77 63 15 7 24 358 335 323 321 316 311 307 305 305 296 297 303 308 308 304 301 299 298 299 299 301 302 303 298 299 296
102 102 102 101 98 96 96 96 95 92 81 67 44 22 19 45 50 17 340 326 317 312 312 311 307 294 299 292 285 292 296 295 298 297 295 294 296 299 302 299 299 298 299
106 107 108 108 108 110 113 109 101 88 74 54 32 26 53 80 51 8 342 317 310 314 312 311 311 315 310 314 315 306 296 287 283 286 288 291 296 299 299 298 297 299 300
113 112 113 118 120 120 113 100 90 71 50 37 24 19 28 87 56 356 329 305 308 314 312 310 311 313 328 334 318 308 304 301 297 294 291 294 295 296 295 294 295 297 297
116 118 125 127 120 115 102 88 67 48 34 15 23 4 357 84 67 359 329 318 319 318 315 314 313 315 345 330 314 306 304 304 299 289 284 282 279 278 278 285 291 297 305
124 127 126 114 104 95 84 68 60 42 25 1 24 360 347 8 79 358 329 323 324 318 313 309 303 322 324 315 313 306 304 311 313 309 302 298 296 295 275 274 287 295 302
128 122 114 106 98 89 82 68 48 28 27 8 5 351 351 354 86 66 329 330 329 319 314 314 326 345 320 311 306 301 303 306 301 303 311 321 328 328 323 311 300 293 297
127 119 112 104 94 97 95 77 42 1 356 4 356 345 353 351 347 353 310 304 306 314 315 322 331 328 313 304 304 305 301 299 304 319 328 335 338 338 336 331 325 313 295
128 118 113 109 104 99 82 53 13 353 352 357 354 350 351 348 348 295 293 294 290 305 318 316 306 301 301 303 306 303 303 317 332 334 338 342 345 343 345 342 339 337 327
132 126 131 135 142 133 338 358 360 2 358 355 356 353 349 348 355 350 339 331 325 321 327 317 302 294 305 322 322 325 335 342 337 335 339 343 349 356 1 356 351 350 351
132 139 161 156 106 271 334 12 358 26 25 350 353 352 350 346 354 338 325 330 332 329 324 321 340 346 346 344 342 343 343 347 346 344 347 352 0 7 8 7 1 355 359
137 161 207 280 320 312 329 188 137 41 122 163 316 332 350 357 332 323 320 316 311 309 316 340 346 343 340 337 338 339 342 345 343 343 351 360 10 16 16 20 15 10 10
50 354 318 326 327 322 334 339 11 161 179 180 180 319 339 337 331 329 327 320 305 304 330 347 342 337 334 334 336 335 336 339 341 349 358 5 15 24 25 27 23 17 18
319 279 296 318 323 333 343 345 353 4 34 88 155 107 352 341 335 330 328 326 344 352 352 344 336 331 329 331 334 336 337 342 350 0 10 17 25 30 35 37 33 26 26
316 332 334 328 328 341 347 357 11 16 22 26 27 33 4 341 326 326 331 352 351 345 344 339 332 330 330 333 338 341 345 352 2 12 22 26 35 40 42 44 46 37 36
301 74 317 312 328 354 8 19 24 29 33 33 24 11 358 353 357 355 355 352 346 342 339 335 331 331 335 341 347 353 358 7 15 23 30 36 44 49 53 51 50 47 46
349 115 193 287 26 35 35 37 39 41 39 35 31 29 355 351 355 350 349 348 346 340 335 331 332 339 346 349 355 360 5 15 24 26 32 40 47 52 53 54 54 53 52
21 33 48 58 66 55 47 51 53 52 46 35 27 38 11 3 2 353 351 350 345 337 334 330 333 342 350 351 352 354 6 17 21 23 32 42 47 51 52 50 49 49 51
36 57 77 80 83 103 74 61 56 53 45 35 28 25 16 11 6 0 356 353 348 346 344 343 343 352 356 353 353 357 7 11 10 14 26 41 46 49 50 51 52 54 46
48 55 74 82 79 77 73 68 57 48 39 32 28 27 21 16 10 5 3 358 354 354 355 357 356 359 2 6 7 15 15 359 351 10 28 37 42 43 45 45 45 42 46
58 67 75 75 76 78 76 67 55 46 40 34 30 28 23 20 16 10 4 359 359 3 5 8 7 9 12 19 19 16 7 3 359 352 15 37 40 37 37 40 41 43 44
63 70 74 76 76 74 72 66 58 50 45 41 36 31 28 24 17 11 7 6 9 10 11 13 16 21 20 21 19 16 15 13 5 349 357 39 42 32 28 38 42 46 52
Height
1513 1516 1518 1520 1522 1525 1527 1530 1533 1535 1537 1539 1541 1542 1543 1543 1542 1542 1542 1540 1539 1538 1536 1535 1532 1530 1528 1526 1524 1521 1518 1515 1509 1505 1503 1499 1494 1490 1486 1482 1477 1473 1468
1517 1519 1521 1523 1525 1528 1530 1533 1535 1537 1539 1540 1541 1542 1542 1542 1541 1540 1539 1538 1537 1535 1533 1531 1529 1527 1524 1521 1519 1516 1513 1510 1506 1500 1496 1493 1488 1484 1479 1475 1471 1466 1462
1521 1522 1524 1526 1528 1530 1533 1535 1537 1538 1540 1541 1541 1541 1541 1540 1539 1538 1537 1535 1534 1532 1530 1528 1525 1523 1520 1517 1514 1511 1508 1505 1501 1496 1491 1487 1482 1478 1473 1469 1464 1459 1455
1525 1526 1527 1529 1531 1533 1535 1537 1538 1539 1540 1540 1540 1540 1540 1539 1538 1536 1535 1533 1531 1529 1526 1524 1521 1519 1516 1513 1510 1507 1504 1500 1496 1491 1486 1481 1477 1472 1468 1463 1457 1453 1449
1528 1528 1530 1531 1533 1535 1536 1537 1538 1539 1540 1539 1539 1539 1538 1538 1535 1533 1532 1531 1528 1525 1523 1521 1518 1515 1511 1508 1506 1503 1499 1495 1491 1486 1481 1476 1472 1467 1462 1457 1452 1447 1442
1529 1530 1532 1533 1535 1536 1537 1538 1538 1539 1539 1539 1538 1538 1537 1535 1532 1530 1528 1526 1525 1523 1520 1517 1515 1512 1509 1505 1501 1498 1494 1490 1485 1481 1476 1471 1466 1462 1457 1452 1447 1442 1436
1531 1532 1534 1535 1536 1537 1538 1538 1538 1538 1538 1537 1537 1536 1534 1531 1530 1527 1525 1523 1522 1520 1517 1514 1511 1509 1505 1501 1497 1493 1489 1485 1481 1477 1471 1466 1461 1457 1452 1447 1443 1438 1433
1532 1534 1535 1536 1537 1538 1539 1539 1538 1538 1537 1537 1536 1534 1533 1530 1528 1525 1523 1521 1519 1516 1514 1511 1508 1504 1501 1497 1492 1488 1484 1480 1476 1472 1467 1462 1457 1452 1447 1443 1438 1433 1429
1534 1535 1537 1538 1539 1539 1539 1539 1538 1538 1537 1536 1535 1533 1532 1529 1526 1523 1520 1518 1516 1513 1510 1508 1504 1502 1498 1493 1488 1484 1479 1475 1472 1467 1462 1457 1451 1446 1442 1438 1434 1430 1425
1536 1537 1538 1539 1540 1540 1539 1539 1538 1537 1536 1536 1534 1532 1530 1528 1524 1521 1518 1516 1513 1510 1507 1504 1502 1498 1494 1490 1485 1481 1476 1472 1467 1462 1457 1452 1447 1442 1438 1434 1430 1427 1423
1538 1539 1540 1540 1540 1540 1539 1539 1538 1537 1536 1534 1533 1531 1529 1526 1523 1520 1516 1513 1511 1507 1505 1502 1499 1495 1491 1487 1483 1478 1474 1469 1463 1459 1454 1449 1444 1439 1435 1431 1428 1425 1422
1539 1540 1541 1541 1541 1540 1540 1539 1538 1537 1536 1534 1532 1531 1528 1525 1522 1518 1515 1511 1508 1505 1503 1500 1497 1493 1489 1485 1481 1476 1472 1466 1462 1457 1452 1447 1442 1437 1433 1429 1426 1423 1420
1540 1541 1541 1541 1541 1541 1540 1539 1538 1537 1535 1534 1532 1530 1527 1524 1520 1516 1513 1510 1506 1504 1501 1498 1494 1491 1487 1483 1479 1474 1470 1465 1461 1456 1451 1446 1441 1437 1432 1429 1425 1422 1419
1541 1541 1541 1541 1541 1541 1540 1539 1538 1536 1534 1533 1530 1528 1525 1522 1519 1515 1511 1508 1505 1503 1500 1496 1493 1490 1486 1482 1478 1473 1469 1465 1460 1455 1450 1446 1441 1437 1433 1429 1425 1422 1419
1541 1542 1542 1542 1541 1540 1539 1538 1537 1535 1533 1531 1529 1527 1524 1520 1517 1513 1509 1506 1504 1501 1498 1495 1493 1489 1485 1481 1477 1473 1468 1464 1459 1455 1450 1446 1442 1438 1434 1431 1427 1424 1420
1542 1542 1542 1541 1540 1539 1538 1536 1534 1533 1531 1529 1526 1524 1522 1519 1515 1512 1509 1506 1503 1501 1498 1495 1492 1489 1485 1481 1477 1473 1469 1464 1460 1455 1451 1447 1443 1440 1436 1433 1430 1427 1423
1542 1542 1541 1540 1539 1538 1537 1535 1534 1531 1529 1527 1525 1523 1520 1517 1514 1511 1508 1506 1503 1501 1498 1496 1493 1489 1486 1482 1478 1474 1470 1465 1461 1456 1452 1448 1445 1442 1439 1436 1433 1430 1427
1542 1541 1540 1539 1538 1537 1536 1534 1533 1532 1530 1528 1525 1522 1520 1517 1514 1511 1508 1506 1504 1501 1499 1496 1493 1490 1487 1483 1479 1475 1471 1467 1463 1459 1455 1451 1447 1445 1442 1440 1437 1434 1431
1541 1540 1539 1538 1537 1536 1535 1534 1532 1531 1530 1528 1526 1523 1520 1517 1514 1511 1509 1507 1504 1502 1499 1497 1494 1491 1488 1485 1481 1477 1473 1469 1465 1462 1458 1454 1451 1448 1446 1444 1442 1439 1436
1539 1538 1537 1537 1536 1535 1534 1533 1532 1531 1530 1528 1525 1523 1520 1517 1515 1512 1510 1507 1505 1503 1500 1498 1496 1493 1490 1487 1484 1480 1476 1473 1469 1466 1463 1459 1456 1454 1451 1449 1447 1444 1442
1538 1537 1536 1536 1535 1535 1534 1533 1533 1531 1530 1528 1526 1524 1521 1518 1516 1513 1510 1508 1506 1504 1502 1500 1498 1495 1493 1490 1486 1483 1480 1477 1474 1471 1468 1465 1462 1460 1457 1455 1453 1450 1448
1538 1537 1536 1536 1536 1535 1535 1534 1533 1532 1531 1529 1528 1525 1523 1520 1517 1514 1512 1509 1507 1506 1504 1502 1500 1498 1496 1493 1489 1486 1484 1481 1478 1476 1474 1471 1469 1466 1464 1461 1459 1456 1454
1538 1537 1537 1536 1536 1535 1535 1535 1534 1533 1532 1530 1529 1527 1524 1522 1519 1516 1513 1511 1510 1508 1507 1505 1503 1501 1499 1496 1493 1490 1488 1485 1483 1481 1479 1477 1475 1472 1470 1467 1465 1463 1460
1538 1538 1537 1537 1537 1536 1536 1535 1535 1534 1533 1532 1530 1528 1526 1523 1521 1518 1516 1514 1512 1511 1510 1508 1507 1504 1502 1499 1496 1494 1491 1489 1486 1485 1484 1482 1480 1478 1476 1473 1471 1468 1466
1539 1538 1538 1538 1537 1537 1537 1536 1536 1535 1534 1533 1531 1530 1528 1525 1523 1521 1519 1517 1516 1514 1513 1512 1510 1508 1505 1503 1500 1498 1495 1493 1491 1489 1489 1487 1485 1483 1481 1478 1476 1474 1471
1540 1539 1539 1538 1538 1538 1537 1537 1536 1536 1535 1534 1533 1531 1530 1527 1525 1523 1522 1520 1519 1518 1517 1515 1513 1511 1509 1506 1504 1502 1500 1498 1496 1494 1493 1492 1490 1487 1485 1483 1481 1479 1477